Location: Unspecified
(0.0000°N, 0.0000°E)
Time: 02:42:23
(UTC+00:00)

Altair - Visible Passes

Search period start: 24 April 2014 00:00
Search period end: 04 May 2014 00:00
Orbit: 1501 x 1683 km, 47.2° (Epoch: 21 April)

Date Brightness Start Highest point End Pass type
(mag) Time Alt. Az. Time Alt. Az. Time Alt. Az.
24 Apr 9.7 01:35:41 13° ENE 01:35:41 13° ENE 01:36:34 10° ENE visible
24 Apr 7.9 03:33:44 48° NNW 03:33:44 48° NNW 03:41:45 10° NNE visible
25 Apr 8.1 03:10:18 44° N 03:10:18 44° N 03:16:47 10° NNE visible
26 Apr 8.5 02:46:47 35° NNE 02:46:47 35° NNE 02:51:48 10° NNE visible
26 Apr 9.2 04:46:52 10° NW 04:47:30 10° NW 04:48:08 10° NW visible
27 Apr 8.9 02:23:12 27° NNE 02:23:12 27° NNE 02:26:47 10° NNE visible
27 Apr 9.1 04:21:14 12° NW 04:22:14 12° NW 04:25:38 10° NNW visible
28 Apr 9.3 01:59:33 19° NNE 01:59:33 19° NNE 02:01:43 10° NE visible
28 Apr 9.1 03:57:35 14° NW 03:57:35 14° NW 04:01:41 10° NNW visible
29 Apr 9.6 01:35:50 13° NE 01:35:50 13° NE 01:36:38 10° NE visible
29 Apr 9.1 03:33:52 16° NNW 03:33:52 16° NNW 03:37:23 10° N visible
30 Apr 9.2 03:10:05 16° NNW 03:10:05 16° NNW 03:12:56 10° N visible
01 May 9.3 02:46:15 15° NNW 02:46:15 15° NNW 02:48:21 10° N visible
02 May 9.5 02:22:21 14° N 02:22:21 14° N 02:23:41 10° N visible
03 May 9.6 01:58:24 12° N 01:58:24 12° N 01:58:56 10° N visible
